GFSMW_500_spd_096.txt.gz
Wind_Speed
37 36 37 38 36 38 38 36 32 26 29 30 32 31 30 30 30 26 26 27 25 26 28 30 28 27 29 28 30 27 31 31 28 37 37 35 30 25 27 32 31 31 32
39 41 42 43 39 40 39 37 33 28 29 31 31 33 31 31 27 24 27 27 25 27 30 31 31 27 29 32 32 33 32 36 37 38 38 38 35 28 30 28 28 29 32
38 40 41 40 38 38 38 37 33 32 30 30 34 35 32 28 24 26 26 26 24 28 29 30 30 32 31 38 31 32 31 32 29 32 34 34 26 28 30 31 30 29 33
42 40 39 41 41 40 37 36 32 33 30 29 36 34 27 25 25 25 23 24 25 29 28 29 28 33 30 28 34 36 35 37 31 35 36 35 33 29 32 30 31 32 32
44 44 43 40 40 38 34 36 31 31 30 32 36 32 25 24 27 22 22 23 26 29 28 29 30 29 34 35 34 37 38 34 33 38 37 39 33 29 33 30 30 29 28
37 34 39 37 38 36 36 37 29 32 30 34 34 29 23 26 22 20 22 25 27 29 28 29 30 30 32 33 36 43 34 36 39 35 39 42 33 29 30 31 28 27 25
36 40 37 36 37 34 33 35 24 34 31 33 33 28 25 24 20 19 23 27 27 29 29 27 27 30 33 37 40 44 39 40 38 39 40 42 31 30 31 33 31 28 24
36 37 38 34 32 32 34 23 33 35 27 31 31 27 25 21 18 20 24 25 27 28 27 30 29 33 35 41 39 38 38 36 40 44 41 41 35 35 28 28 23 24 27
30 34 32 31 29 32 25 29 32 27 27 30 26 22 22 19 17 21 24 25 28 28 26 29 34 29 31 35 44 43 38 36 34 41 42 40 36 34 28 25 29 30 32
29 28 28 28 24 24 27 28 24 27 28 25 24 22 21 17 18 22 24 26 27 28 30 26 23 23 23 34 45 42 39 36 38 42 40 36 35 35 32 31 32 31 32
26 22 24 24 23 21 26 25 26 27 25 25 26 18 17 18 19 21 24 25 26 27 29 25 24 25 28 28 32 40 35 30 45 48 40 35 35 28 30 30 30 32 32
24 20 22 22 22 24 25 27 26 25 23 28 24 17 19 20 20 19 23 22 23 24 21 25 24 30 29 33 37 37 36 37 47 44 45 35 28 27 30 29 30 30 29
22 21 22 24 26 28 29 29 27 26 26 28 28 21 21 21 20 19 21 18 18 18 15 14 11 19 22 30 38 35 37 41 38 33 28 30 33 30 31 33 29 24 22
22 19 22 25 28 30 32 32 31 31 33 32 32 23 22 21 22 20 21 18 16 14 11 8 10 15 16 18 27 32 36 34 29 23 28 28 28 31 27 24 25 26 26
23 22 21 25 27 33 36 38 37 37 35 36 31 24 23 22 22 22 22 17 18 13 11 10 8 10 20 18 24 24 24 33 32 26 26 24 23 22 25 26 27 28 28
23 23 22 23 27 34 39 40 41 42 38 32 31 24 24 22 22 23 23 19 17 15 14 10 12 14 18 15 18 21 22 23 23 26 29 27 26 24 25 27 28 26 27
20 22 23 23 28 31 38 41 45 38 34 40 28 24 23 24 26 26 24 21 20 16 15 16 17 18 20 21 22 23 26 31 28 26 25 25 25 27 28 29 29 30 30
19 20 22 25 28 31 36 42 43 43 37 34 30 26 26 27 28 28 26 24 24 23 21 19 20 21 22 24 24 24 25 26 27 28 28 27 27 27 29 29 30 31 32
18 18 22 26 29 32 35 42 39 44 40 38 35 32 32 32 30 32 31 29 29 29 27 26 25 25 25 25 26 26 25 26 27 27 28 29 29 30 30 32 35 36 35
19 22 23 25 31 33 33 38 36 36 34 39 38 36 39 36 34 34 35 35 35 35 34 32 31 30 31 31 32 31 31 31 31 31 30 30 31 34 34 36 38 42 41
21 23 23 28 29 35 41 35 40 40 41 40 43 42 43 37 36 36 38 41 40 40 40 39 38 38 38 39 38 37 37 36 33 34 36 35 37 36 34 43 44 40 37
19 23 23 25 27 24 34 40 46 52 50 41 46 50 45 42 41 39 35 37 31 42 46 46 43 43 43 41 40 40 39 39 37 41 43 45 44 39 44 47 50 53 55
20 20 19 20 18 18 23 31 45 44 38 42 54 59 51 49 44 42 43 45 38 34 40 43 43 43 42 48 38 42 46 43 41 52 51 48 48 49 51 55 57 55 54
20 19 20 21 21 18 18 20 26 39 45 44 48 55 57 57 54 49 50 55 47 44 58 51 47 49 58 54 53 48 52 55 55 58 56 54 52 52 53 55 55 55 56
12 14 16 19 23 25 25 24 22 21 26 44 50 59 60 67 66 62 59 63 57 55 64 65 62 54 61 59 52 55 59 60 62 64 62 60 58 57 57 57 58 59 59
11 13 15 17 18 20 22 24 25 27 27 28 35 34 39 47 47 54 57 57 60 64 66 69 69 66 66 69 69 69 70 69 71 72 72 69 66 62 61 61 61 63 64

GFSMW_500_spd_099.txt.gz
Wind_Speed
44 46 44 41 42 43 39 40 38 34 31 27 32 33 33 34 34 34 32 29 26 27 29 26 24 23 26 26 26 30 25 25 26 28 27 35 45 32 29 27 26 33 32
37 40 40 41 39 37 39 38 37 34 30 25 32 33 33 34 34 34 31 28 25 29 29 25 24 25 27 27 28 31 33 25 27 28 31 30 32 32 27 26 25 28 30
37 38 38 46 41 37 35 36 34 34 33 27 30 32 34 35 32 32 25 26 27 29 28 24 25 26 26 29 32 28 34 32 29 32 35 29 25 28 31 23 23 26 27
38 45 46 44 44 40 36 36 39 36 33 30 28 32 35 34 32 31 27 28 27 27 27 24 25 27 28 28 33 29 35 33 31 36 35 32 35 33 35 29 26 30 29
48 48 46 42 35 37 39 39 36 38 33 33 28 35 35 33 32 30 29 26 28 27 25 24 26 27 28 30 29 33 27 32 32 31 32 33 31 36 36 29 29 33 31
47 46 44 40 39 38 40 37 41 36 32 30 29 36 37 29 30 29 28 27 29 26 24 25 27 29 29 30 29 31 28 29 35 37 36 34 34 33 34 31 29 29 31
33 33 34 33 34 37 38 37 37 31 29 31 34 39 36 28 30 29 26 28 27 27 25 26 29 29 30 31 35 31 30 30 38 39 35 35 35 38 36 35 29 33 30
37 32 37 29 32 30 31 34 33 28 31 33 38 38 31 29 28 29 28 25 26 25 26 29 29 30 29 33 33 31 34 31 39 37 40 39 34 36 37 35 29 27 25
25 30 31 32 36 40 37 33 33 35 37 36 36 34 29 29 28 28 26 26 23 25 28 30 29 32 33 31 35 34 33 31 39 44 36 40 40 40 38 37 30 25 25
31 27 31 33 34 36 35 34 36 34 33 32 33 29 26 28 28 29 30 23 22 26 29 30 32 32 30 32 29 33 37 41 39 40 40 43 43 43 40 41 28 30 28
24 24 26 30 33 32 31 32 30 28 26 28 27 25 26 26 26 24 22 21 23 26 28 29 30 30 27 30 30 34 38 40 37 44 39 43 43 41 42 40 38 34 31
23 20 24 26 27 30 32 31 28 25 25 24 23 26 28 25 24 21 22 22 23 25 27 27 26 24 28 24 27 34 35 40 42 40 37 42 42 44 41 38 33 30 32
19 21 24 25 26 29 33 27 27 25 25 23 23 28 26 23 21 23 22 23 22 23 24 23 19 27 22 26 28 25 29 42 37 35 39 47 46 43 37 33 27 33 31
15 18 21 24 25 27 29 27 28 26 25 27 28 30 25 26 24 23 22 24 21 22 22 20 20 14 17 27 29 28 34 39 42 36 40 46 40 39 33 33 30 32 35
18 16 17 20 24 24 28 28 28 28 29 32 32 32 29 29 26 22 22 24 21 19 21 18 19 10 11 15 22 28 36 41 37 33 43 38 31 30 34 37 37 36 31
18 18 17 19 23 24 27 30 31 32 34 34 35 34 33 33 30 22 23 23 21 18 17 17 14 15 9 9 18 22 31 33 28 37 34 28 30 31 30 32 32 30 31
18 17 15 17 20 23 27 32 35 37 38 38 38 36 35 34 29 23 25 24 22 20 17 17 17 16 15 15 13 17 24 28 31 31 34 32 32 30 27 30 31 32 33
17 17 17 17 19 23 27 31 35 39 40 40 39 39 40 39 33 30 28 26 23 23 21 19 19 19 18 19 19 20 22 24 27 27 33 34 39 33 34 34 33 33 35
16 17 17 17 18 21 26 31 35 37 41 42 43 41 38 37 38 32 29 30 27 25 25 23 22 22 22 23 23 24 25 27 34 30 35 34 34 34 35 36 37 36 36
18 17 18 19 19 21 25 31 33 36 39 44 44 46 45 35 39 32 36 32 31 30 29 28 27 27 27 27 28 29 30 31 33 34 34 36 37 37 38 37 37 39 39
18 18 19 20 20 20 24 26 30 37 37 39 43 37 41 38 43 37 40 36 35 34 34 35 34 33 33 32 33 34 35 36 37 37 38 39 39 39 41 43 43 41 44
17 17 20 20 20 20 20 25 29 42 38 41 44 43 42 51 48 42 46 46 42 40 39 39 40 40 39 40 40 39 41 42 43 43 42 44 43 41 44 45 45 43 45
18 19 19 22 22 20 15 16 20 35 40 45 53 48 48 49 48 49 45 54 49 46 45 38 41 35 42 45 45 46 46 47 46 46 47 46 44 45 52 48 51 54 57
15 16 17 19 21 19 17 15 15 14 17 29 46 57 49 48 58 55 56 60 53 52 50 49 46 51 46 45 49 50 53 54 56 50 53 53 54 58 58 60 60 60 62
6 8 9 12 16 18 17 18 18 17 19 18 18 21 35 52 54 56 61 56 60 60 60 60 59 60 54 52 53 63 57 60 55 58 55 65 67 59 63 64 65 66 69
9 8 6 7 9 12 14 15 17 18 19 21 22 24 23 25 27 35 42 44 51 60 61 63 61 64 69 61 59 71 68 65 73 74 67 71 70 72 75 76 74 73 76

GFSMW_500_spd_102.txt.gz
Wind_Speed
57 55 56 60 53 50 51 49 50 45 41 37 38 35 35 38 36 33 34 36 37 38 35 28 29 27 25 26 27 28 27 26 28 32 30 29 29 33 41 40 33 30 34
44 47 47 55 52 50 50 50 48 45 39 35 33 36 39 39 39 33 33 36 36 36 33 30 29 25 24 26 29 28 27 23 27 31 28 30 30 38 41 40 32 29 24
39 46 43 45 47 54 48 44 43 41 35 33 34 37 38 38 35 33 35 36 37 37 34 32 29 25 24 27 27 25 26 25 26 35 31 29 30 34 41 41 34 27 26
42 44 43 44 51 50 48 51 42 36 36 33 32 32 33 38 36 36 37 37 36 38 34 32 28 26 25 24 25 25 25 26 25 30 28 30 32 30 29 38 34 31 27
46 49 50 49 51 48 44 38 39 39 38 34 30 30 34 40 39 35 37 37 36 38 33 33 28 29 25 24 24 25 27 26 29 30 32 33 33 32 31 35 33 29 29
44 49 52 52 45 41 38 39 35 33 33 32 31 28 37 40 38 36 37 35 36 36 35 33 30 29 26 25 25 25 27 28 30 28 31 35 38 33 33 34 33 33 33
45 45 42 33 36 34 34 37 36 37 34 33 31 31 35 42 37 38 37 33 35 34 36 35 31 29 27 28 26 27 28 30 31 32 31 32 36 37 33 35 37 37 34
32 40 38 37 31 33 38 37 38 36 32 35 36 36 41 40 38 38 34 33 33 35 38 34 31 30 29 30 28 29 29 30 32 29 29 37 36 37 37 36 37 35 37
30 30 24 29 34 35 35 33 33 28 34 38 35 37 36 37 38 36 32 31 35 37 36 34 31 28 31 31 30 32 32 31 30 33 31 38 39 39 40 38 39 42 40
27 22 19 30 37 37 41 36 32 31 33 31 34 36 34 35 36 32 32 34 36 35 34 31 28 31 33 32 34 35 32 33 34 34 35 36 40 42 42 38 36 38 40
17 21 19 25 29 32 35 37 35 33 34 34 35 35 32 35 31 32 34 35 37 39 29 28 29 31 32 35 35 38 32 31 34 36 34 35 45 37 40 41 40 39 40
22 25 26 29 23 28 29 28 27 33 34 33 30 31 32 31 31 32 34 36 38 29 28 27 27 29 33 32 33 29 30 36 38 38 36 39 39 38 43 43 41 41 40
26 28 22 26 28 25 23 29 30 33 34 31 29 30 31 30 32 35 36 32 27 28 28 25 26 27 30 30 36 33 31 34 35 41 40 41 43 40 44 45 43 42 41
18 18 20 22 24 26 31 31 32 32 34 33 29 28 28 30 32 32 29 22 26 27 26 25 24 27 28 31 26 25 27 35 38 36 37 36 40 44 44 45 45 41 37
15 15 18 19 24 29 32 31 32 34 34 32 30 28 29 29 33 27 28 28 29 28 26 26 23 26 24 24 20 30 30 25 30 35 39 39 41 43 45 43 42 38 37
11 16 19 19 20 26 30 34 32 33 32 34 34 33 32 31 31 29 30 30 30 30 28 27 23 24 21 22 12 27 31 28 29 35 38 38 38 38 45 41 37 38 41
11 14 15 16 17 22 26 28 31 32 33 33 35 35 37 35 34 34 31 36 36 33 28 28 23 21 19 19 10 16 27 26 29 35 33 35 34 36 38 35 35 38 40
13 13 15 16 16 18 23 28 30 31 33 34 36 38 39 35 34 36 31 40 38 34 30 29 26 22 19 18 18 13 19 22 25 27 31 34 38 37 34 36 37 35 36
15 15 15 15 17 17 19 25 29 31 33 36 37 38 39 39 37 34 28 39 38 37 32 30 29 26 23 19 19 18 15 18 21 26 33 36 38 40 40 40 42 44 43
17 17 15 16 19 18 19 23 28 33 36 37 38 41 42 37 41 38 41 38 42 35 33 31 30 29 29 25 23 23 23 22 23 27 34 29 28 36 39 45 43 40 38
16 17 19 20 19 20 21 22 23 28 36 39 38 42 43 42 39 44 40 35 43 36 36 34 33 34 33 33 31 30 29 29 30 31 32 33 34 34 37 40 41 44 45
19 19 19 19 21 21 22 22 22 25 28 34 39 43 43 44 50 46 46 45 44 44 44 39 39 38 38 38 39 38 37 36 36 37 38 39 40 42 43 45 46 46 47
20 20 20 20 22 23 22 18 19 21 26 30 36 46 43 51 51 56 49 46 46 49 50 47 50 44 44 44 43 44 44 43 43 42 44 45 45 46 49 51 52 53 54
17 16 17 19 20 22 21 19 21 20 18 19 22 34 42 35 45 49 48 49 55 53 53 58 52 49 49 47 47 44 45 41 46 49 50 51 51 50 52 53 58 60 59
6 9 11 13 14 15 18 19 19 19 21 19 20 19 23 21 27 40 40 51 57 52 57 58 61 58 57 56 57 56 55 57 55 53 50 54 58 59 60 60 61 65 65
6 6 6 7 7 8 10 10 13 14 15 17 19 21 22 24 26 26 28 36 43 49 54 59 62 63 62 63 64 60 61 66 63 64 65 60 58 63 69 70 68 70 72

GFSMW_500_spd_105.txt.gz
Wind_Speed
61 51 55 59 61 62 62 60 58 49 46 44 42 44 46 46 45 42 41 38 34 36 35 34 32 34 33 29 30 29 29 27 29 29 27 29 31 38 34 33 36 44 38
57 49 56 60 62 59 59 60 58 49 48 48 43 42 46 47 46 45 43 35 34 37 36 34 32 36 35 30 30 29 30 30 28 26 24 33 30 33 35 36 37 43 42
58 50 53 56 58 58 58 60 56 50 51 48 46 45 46 48 48 47 37 33 32 39 39 34 35 37 33 31 29 30 29 30 25 25 24 30 33 27 33 31 37 42 37
50 51 51 53 54 55 55 58 53 50 51 45 44 46 47 46 46 40 37 36 41 43 40 35 35 37 35 30 31 30 29 29 26 26 24 29 28 28 31 32 36 40 40
49 48 47 50 56 57 54 55 54 51 46 41 36 42 46 45 44 43 40 38 41 41 40 34 35 37 35 31 32 31 30 27 27 25 26 26 25 23 30 34 43 45 39
41 42 46 50 56 54 50 49 51 51 47 40 35 39 42 41 41 40 39 38 40 40 39 37 36 37 35 33 33 32 31 29 27 26 27 28 27 27 30 31 32 41 43
41 42 45 45 54 51 48 44 49 47 44 38 38 39 40 39 42 43 41 40 39 40 38 38 36 37 35 35 35 33 31 30 29 29 28 29 28 28 34 34 34 33 35
33 37 41 39 44 41 44 38 39 40 40 38 39 43 47 45 44 40 43 41 39 40 37 37 38 36 34 36 35 36 32 32 31 31 27 31 32 29 36 38 36 38 39
29 33 25 32 35 36 36 35 37 33 36 40 42 38 41 43 41 41 42 38 38 39 37 38 38 34 36 35 36 36 33 35 33 32 31 31 32 29 35 38 41 39 40
18 26 25 25 29 38 36 40 36 33 35 38 39 42 44 42 41 40 39 38 40 36 37 39 35 35 37 36 38 35 36 39 36 34 34 33 33 33 36 39 38 42 39
18 31 20 24 24 28 43 38 34 33 37 41 40 38 39 38 35 35 36 36 36 35 39 36 36 39 36 37 36 38 41 42 40 33 33 35 34 36 37 41 39 42 42
19 26 23 24 20 21 24 32 39 40 39 38 36 32 36 35 35 36 34 32 34 36 37 36 38 39 33 34 36 38 39 40 37 36 37 35 35 37 39 37 41 45 42
23 19 15 17 18 21 24 29 36 42 41 38 35 32 35 29 33 32 30 33 33 36 36 39 38 33 34 34 36 35 37 38 35 37 41 39 35 41 40 39 45 45 47
8 6 11 15 19 23 27 22 25 30 32 35 28 31 29 30 30 31 32 34 33 34 36 41 32 34 35 35 36 35 37 39 41 44 41 42 43 45 39 43 43 43 41
5 7 10 14 16 18 22 24 24 21 19 25 30 31 30 29 30 31 32 31 33 37 40 32 34 35 35 34 33 35 41 41 32 33 36 37 39 46 46 42 42 41 42
2 8 10 11 12 14 19 21 23 25 26 22 29 29 31 31 31 31 32 31 36 37 30 33 35 35 34 33 33 32 39 27 28 28 33 39 40 38 45 38 45 43 45
5 9 11 14 12 16 19 21 26 25 27 29 23 26 33 34 34 33 32 28 32 31 34 34 37 35 35 32 31 28 34 24 31 33 30 35 40 39 40 39 41 45 46
12 10 7 9 12 14 17 19 23 24 28 31 32 35 37 36 36 36 34 34 32 28 30 36 38 36 35 32 32 24 28 18 26 30 28 31 36 35 39 42 44 47 47
11 11 11 11 12 15 15 17 21 24 26 29 32 34 38 37 38 38 37 38 36 34 32 30 39 38 36 33 33 24 25 24 17 20 25 28 31 34 37 39 36 40 45
8 10 12 14 15 15 16 17 19 21 25 28 31 35 37 38 37 37 37 38 38 39 34 36 40 37 39 37 35 30 26 25 23 23 20 26 29 33 40 39 39 43 45
11 11 12 14 17 18 17 19 21 21 24 27 31 35 36 38 38 38 40 46 40 40 41 39 35 41 41 39 38 35 31 31 29 28 26 28 28 26 37 39 43 46 49
15 14 15 16 17 19 20 20 22 24 25 26 29 33 37 40 40 41 40 41 49 44 43 44 37 39 40 41 42 41 40 37 35 35 35 33 32 32 33 37 35 32 38
16 15 15 16 18 21 20 22 24 25 24 25 25 28 33 36 41 41 42 49 54 44 43 45 48 43 45 46 47 45 44 42 42 40 41 42 41 41 41 41 41 40 41
15 15 15 15 16 16 19 21 23 22 22 24 24 25 26 29 37 43 48 51 54 51 58 63 55 50 49 51 53 50 54 50 47 44 45 46 47 48 48 47 47 48 48
11 10 11 11 13 14 16 18 20 19 20 22 25 27 26 26 28 29 28 38 47 53 58 53 55 54 59 55 58 59 56 53 54 52 52 52 51 49 51 54 56 56 58
7 6 6 7 8 9 11 12 13 14 15 16 16 19 23 26 27 27 27 29 31 30 34 41 48 52 53 53 54 60 64 67 63 62 60 59 61 60 61 61 61 60 61

GFSMW_500_spd_108.txt.gz
Wind_Speed
57 59 59 61 62 59 59 59 61 62 64 57 48 52 43 43 44 45 45 45 45 44 42 40 36 32 31 27 31 31 26 28 31 31 26 27 26 25 28 26 23 34 35
70 71 71 68 69 65 63 63 61 63 62 62 51 50 45 42 47 45 50 49 47 43 44 41 37 31 31 29 31 31 27 30 31 30 30 26 24 25 27 30 24 29 35
83 84 83 80 75 76 68 65 65 64 63 59 60 51 51 45 46 46 48 49 46 45 44 40 36 31 34 32 32 31 30 32 30 30 30 26 24 26 27 26 31 32 36
87 86 82 77 73 71 71 66 64 63 65 60 58 51 48 45 39 41 46 47 49 46 44 40 37 34 37 32 31 32 32 34 31 31 29 28 25 25 26 32 23 28 35
67 65 65 63 63 66 65 68 65 63 64 65 53 50 48 45 44 41 44 48 50 47 46 42 38 39 37 34 32 32 33 35 32 29 27 28 29 28 27 25 27 28 31
42 41 41 44 48 55 55 61 65 64 64 57 48 50 44 46 44 42 44 50 49 49 48 44 40 39 38 35 33 34 34 34 34 31 29 27 31 28 27 28 23 26 36
32 30 30 32 36 42 49 52 56 58 56 50 49 44 42 40 39 38 43 49 48 51 46 45 40 40 37 34 35 35 33 34 35 33 31 29 31 31 30 28 24 29 34
27 25 28 32 36 40 44 49 54 55 47 46 47 41 41 38 38 40 45 50 48 50 50 41 38 41 35 34 36 36 33 34 33 34 33 33 32 32 30 30 31 29 32
23 20 25 29 31 35 38 40 46 48 42 44 46 46 46 41 42 46 43 46 49 49 42 38 39 36 34 36 37 35 33 33 32 35 36 36 34 34 34 33 32 33 35
21 25 21 30 26 26 32 37 38 42 44 43 50 48 48 47 48 45 43 43 46 46 46 37 37 33 35 36 36 35 34 33 34 35 38 38 39 38 37 38 35 35 37
11 12 15 19 17 25 20 34 39 39 36 38 42 43 45 48 48 45 44 45 46 50 37 39 37 33 35 38 36 36 34 36 36 38 41 43 45 40 40 38 35 35 40
17 18 8 14 13 17 19 30 25 28 36 31 35 39 46 45 42 41 42 45 49 44 41 38 35 36 36 34 36 35 36 38 38 40 44 44 44 43 38 36 41 36 40
15 11 20 17 14 11 8 10 31 29 32 30 38 40 42 41 42 42 42 45 49 43 39 34 35 34 34 36 35 38 37 37 39 41 42 43 45 46 43 42 43 40 41
10 19 15 12 10 10 11 14 16 27 26 34 33 39 44 46 43 42 43 45 43 39 30 31 31 34 34 34 38 38 38 39 41 42 45 45 45 46 43 44 46 40 40
9 7 5 3 5 9 9 12 13 14 12 27 40 34 38 41 43 41 42 34 35 30 29 30 33 32 34 36 39 39 40 40 39 42 48 45 46 48 50 47 45 40 43
9 1 3 3 6 9 7 11 13 13 19 20 22 37 25 26 37 30 31 31 30 30 30 31 29 31 35 40 38 41 40 39 40 41 45 44 38 36 37 41 44 43 42
4 1 2 6 6 10 10 10 9 14 12 10 9 18 28 29 30 32 31 33 31 29 29 31 31 34 34 34 37 41 40 39 39 43 40 30 33 33 37 38 38 42 47
5 5 4 5 7 8 10 11 10 11 14 18 25 26 21 23 26 32 32 33 31 31 30 31 27 33 30 33 37 41 39 39 37 42 37 29 30 30 36 38 38 38 45
5 5 6 6 7 7 10 10 10 12 15 19 22 24 27 23 19 25 31 33 35 35 35 34 33 31 30 32 33 39 40 38 36 36 36 23 24 31 36 36 42 39 39
5 5 6 7 9 8 8 10 10 12 14 19 21 23 26 31 31 26 30 35 36 38 40 39 39 38 37 39 35 38 41 39 38 32 37 38 22 20 32 33 36 35 39
8 7 7 8 10 11 12 12 13 14 15 17 19 20 24 28 32 35 37 37 39 37 41 42 43 41 42 40 40 42 41 40 39 37 33 30 32 27 21 24 33 36 40
9 9 11 12 12 13 13 14 15 16 18 19 20 20 23 24 27 31 35 38 39 39 41 44 44 44 49 53 43 41 41 44 43 42 38 35 35 32 32 33 30 33 39
9 9 9 12 14 14 14 16 17 18 19 19 20 22 22 23 23 27 31 36 40 41 41 43 44 44 48 50 50 46 42 46 45 46 45 42 38 38 40 37 38 39 39
11 10 9 7 8 11 12 14 16 16 17 17 17 19 22 24 25 27 27 31 35 39 43 45 47 47 49 49 45 51 50 49 50 50 50 48 45 44 44 44 46 46 44
8 7 7 7 8 8 9 10 11 12 13 14 15 16 20 23 25 27 29 29 31 32 35 41 50 55 56 55 58 58 56 58 57 61 59 55 55 53 54 53 50 50 52
5 7 7 8 9 10 11 11 13 14 16 17 18 19 20 20 21 23 24 26 28 31 34 37 37 38 40 45 49 54 56 58 56 58 58 60 61 63 57 58 58 58 59

GFSMW_500_spd_111.txt.gz
Wind_Speed
50 51 53 54 55 56 56 56 57 55 55 54 54 54 52 50 52 51 46 41 43 46 42 41 41 38 39 40 37 30 24 23 27 27 25 24 23 26 28 24 24 25 28
54 56 57 59 60 61 62 62 63 63 62 57 55 54 54 52 51 53 51 47 44 48 44 42 43 41 41 40 38 31 27 26 28 29 27 24 22 26 26 21 20 26 23
62 64 65 67 69 69 70 71 71 71 70 65 60 58 56 57 54 58 52 47 43 48 44 45 44 43 43 40 38 33 28 30 30 30 29 26 23 25 24 22 21 22 24
69 73 76 78 80 80 79 80 81 80 77 72 66 59 56 59 50 54 51 42 48 51 44 47 46 43 42 40 39 36 30 31 30 32 30 28 27 23 20 23 23 25 23
78 80 83 88 85 79 72 69 78 84 79 75 71 65 55 59 53 53 49 50 50 48 47 48 46 43 43 42 39 38 29 32 33 31 31 32 27 24 23 22 27 28 26
73 64 57 46 44 44 46 49 65 80 76 73 73 67 59 59 54 49 47 52 45 48 47 44 44 44 45 43 40 36 31 34 34 32 33 33 31 26 26 25 27 31 29
38 42 31 30 28 25 26 31 41 55 62 65 65 67 62 59 49 46 50 51 45 51 45 43 44 46 45 45 42 36 34 33 35 33 34 34 33 31 29 28 28 31 32
35 24 20 21 20 17 18 21 25 37 45 52 56 59 59 52 44 45 50 50 47 49 46 46 48 47 46 42 40 38 36 35 35 35 34 35 34 33 30 31 32 31 33
27 24 16 16 15 19 16 20 26 32 37 41 42 46 50 42 43 44 47 49 51 49 47 47 49 45 40 38 38 39 37 38 37 34 34 35 34 34 34 32 34 33 32
13 12 16 18 19 22 24 21 26 29 35 36 38 41 40 42 43 45 45 49 48 43 45 45 43 40 37 39 38 39 39 39 36 34 34 34 34 36 36 34 35 36 37
16 12 9 13 14 16 22 21 31 34 35 34 35 40 42 44 46 47 49 48 40 37 38 40 43 39 43 40 40 39 39 37 34 34 35 34 36 38 38 38 40 43 41
10 13 9 3 7 3 10 10 20 28 27 35 40 42 43 48 51 50 49 43 39 39 38 41 43 47 48 43 40 41 37 34 34 34 35 36 37 36 39 43 43 43 40
14 13 17 4 11 4 2 10 18 30 29 32 34 38 41 46 49 51 50 45 44 42 42 42 46 51 49 44 40 39 36 35 35 33 37 35 38 40 42 42 41 42 41
13 9 13 8 4 2 3 9 10 20 23 31 29 36 41 47 47 48 46 47 45 43 43 45 48 50 50 44 40 39 37 35 33 34 34 37 40 43 44 43 42 42 45
14 15 11 7 3 3 5 4 4 16 7 18 22 23 31 38 41 44 45 42 40 41 42 45 48 47 42 40 39 38 36 34 35 33 36 39 41 46 46 46 46 45 45
14 8 7 4 5 2 7 4 4 6 20 17 24 33 26 25 34 38 42 47 44 43 42 44 44 41 33 36 34 33 32 33 32 35 39 42 42 46 45 46 42 45 45
7 9 6 3 2 3 5 8 5 5 8 9 5 23 32 29 28 31 36 42 40 45 42 47 32 28 32 31 31 29 29 31 35 38 41 42 42 45 44 40 33 39 38
6 4 4 5 4 3 2 4 6 1 8 10 12 24 15 27 36 35 33 32 28 26 27 24 27 28 29 29 30 32 33 33 35 39 41 40 40 43 41 37 40 35 39
5 5 5 4 3 2 0 3 3 6 9 8 8 9 6 16 22 18 19 26 24 32 30 26 29 29 30 29 29 31 32 35 38 37 38 41 39 40 39 33 30 34 40
4 5 4 5 4 4 3 2 4 5 7 9 12 11 12 14 15 15 15 16 24 28 27 32 34 36 38 36 37 37 39 40 39 35 32 40 39 38 42 36 31 34 37
4 4 5 6 6 7 6 5 5 6 8 11 13 12 13 16 18 23 24 29 29 21 31 30 34 39 40 42 45 45 46 44 43 43 42 40 39 39 38 40 37 23 25
4 5 6 8 8 8 9 9 10 10 9 9 12 14 15 17 20 23 26 31 34 37 38 41 45 40 41 44 43 47 46 43 43 44 44 43 42 40 40 40 39 40 37
5 5 5 6 8 8 7 8 9 11 11 10 11 12 14 15 16 20 24 26 31 35 39 42 46 46 47 51 46 45 44 46 46 45 47 45 47 46 44 42 41 41 40
7 6 6 5 6 6 7 8 8 8 10 10 10 11 13 14 16 17 18 21 23 26 29 35 39 43 43 47 50 49 48 44 45 45 49 49 47 46 47 49 49 45 46
3 4 3 3 4 5 6 7 9 10 11 12 12 14 15 15 17 18 19 20 21 23 26 30 33 35 38 39 43 50 53 53 56 54 54 55 55 55 56 54 55 57 53
1 1 1 0 2 4 6 8 11 13 15 17 19 21 23 24 25 26 27 28 28 28 29 30 31 32 34 36 38 39 41 44 51 57 62 62 61 61 60 61 62 63 60

GFSMW_500_spd_114.txt.gz
Wind_Speed
52 54 54 54 56 56 56 57 57 59 57 56 55 53 52 54 53 52 51 48 46 44 43 43 45 45 38 37 40 36 34 30 31 30 23 21 21 22 24 24 24 26 22
52 54 54 55 56 57 58 59 59 60 60 59 59 57 54 54 54 51 51 52 48 47 46 45 45 46 39 40 39 39 37 34 31 32 27 23 23 23 25 25 23 23 24
53 55 56 58 59 59 60 61 63 63 64 64 65 63 61 59 56 51 49 51 47 47 49 47 44 43 49 43 42 41 39 38 33 33 31 26 24 25 25 25 25 24 26
56 57 59 61 62 64 65 67 69 71 73 74 73 72 67 64 58 54 51 54 47 48 49 47 48 51 54 49 44 41 40 42 35 36 28 30 29 25 24 26 25 27 24
54 56 59 61 65 68 71 73 75 78 78 80 82 81 77 71 67 64 56 52 52 49 49 52 52 54 53 50 45 41 42 41 38 34 34 32 30 27 27 25 26 28 28
58 62 64 68 74 77 79 82 84 85 87 87 83 85 84 80 78 72 63 60 59 51 46 56 53 53 52 51 46 42 44 42 41 36 35 33 33 31 30 28 29 26 27
67 69 69 65 50 43 47 46 48 53 56 65 78 87 89 86 84 79 69 68 63 54 48 54 55 53 50 52 45 45 45 43 42 37 34 34 33 34 34 31 31 31 29
48 43 35 31 31 34 34 32 34 33 35 41 54 70 76 79 82 80 74 71 63 53 50 49 56 53 52 53 49 46 45 43 43 36 35 36 34 35 36 35 34 34 32
31 31 27 31 28 26 26 25 25 25 24 24 34 44 51 59 64 69 72 68 57 49 49 51 53 52 53 54 47 42 44 46 38 34 37 38 36 35 38 37 37 37 35
26 26 27 27 29 29 23 22 19 19 17 14 19 30 42 46 50 58 59 52 50 49 50 52 51 51 51 50 44 43 43 39 32 34 38 39 37 38 38 38 38 38 38
17 13 7 14 18 23 23 22 24 20 16 18 23 27 32 36 38 37 38 43 49 48 48 50 49 48 48 48 43 43 38 36 33 37 38 38 39 40 39 38 38 39 40
15 11 11 18 14 4 3 13 22 21 23 20 21 28 30 35 37 38 41 44 45 46 45 45 43 46 46 45 45 44 40 38 38 38 39 38 41 40 38 38 41 40 39
8 7 9 16 4 7 12 3 9 19 18 17 24 28 32 36 37 38 43 43 47 44 38 37 40 43 46 45 44 44 42 39 41 40 40 40 41 37 37 40 37 37 39
7 8 5 8 7 3 9 4 3 15 17 16 19 28 35 38 38 40 43 46 45 44 40 40 40 44 43 42 43 43 42 43 45 42 40 41 40 38 38 38 37 38 40
12 16 9 7 9 6 8 12 8 6 13 20 17 22 32 36 40 43 46 48 49 46 43 42 43 43 44 43 44 45 44 46 50 47 42 41 41 37 37 38 37 40 41
11 12 9 7 6 10 6 7 5 2 6 15 14 18 17 30 33 37 39 42 46 48 47 44 40 42 47 51 46 48 50 46 47 43 39 40 38 36 38 39 40 42 42
9 10 4 3 2 3 6 7 6 3 3 14 10 7 24 21 28 28 29 33 38 45 44 44 45 46 45 48 47 48 44 41 38 38 36 36 36 36 37 39 44 46 43
5 5 5 4 4 2 2 5 5 1 6 6 15 4 23 27 20 29 27 34 31 34 34 41 46 44 46 49 52 53 38 34 36 35 33 34 37 37 39 42 43 45 42
4 4 4 3 3 4 1 3 4 6 4 8 5 8 11 6 24 30 27 36 41 49 35 42 41 33 37 29 26 30 36 35 32 34 38 39 39 41 42 44 43 44 45
4 3 3 4 4 3 3 4 5 6 7 6 8 9 8 15 12 7 11 30 27 31 23 28 20 18 23 23 27 29 35 36 38 42 40 39 38 36 38 39 40 44 44
4 5 5 4 4 4 3 3 5 6 7 9 10 11 12 12 6 12 13 16 20 18 23 26 25 31 26 31 29 36 38 43 44 44 44 44 44 45 45 46 45 44 44
4 5 7 6 6 6 6 4 4 4 6 7 8 8 9 13 16 12 16 19 21 23 24 24 33 34 28 33 39 41 47 49 47 48 52 51 48 51 49 46 46 44 46
2 2 3 4 5 5 5 6 7 7 7 6 6 7 7 7 10 12 16 20 23 26 29 30 33 37 41 45 48 44 43 48 49 50 52 49 53 53 51 51 51 48 46
2 1 2 2 2 4 5 5 6 7 7 7 7 8 9 10 11 11 12 14 17 20 24 29 31 34 37 42 46 48 52 55 56 57 59 57 55 56 57 52 50 51 51
3 3 2 2 1 1 2 3 5 7 9 11 13 14 16 18 19 20 19 20 21 21 23 24 27 30 34 36 38 40 43 46 51 54 57 59 58 59 60 55 53 52 54
6 5 5 5 3 3 4 7 9 11 14 17 19 21 22 23 24 26 28 30 30 31 31 33 34 35 37 38 40 41 42 43 44 45 48 49 53 59 62 63 62 63 62

GFSMW_500_spd_117.txt.gz
Wind_Speed
53 53 53 55 56 55 55 57 58 57 56 55 55 55 57 58 57 54 48 50 49 47 45 45 41 38 37 37 38 40 34 37 32 34 29 28 24 22 23 24 25 23 28
55 54 54 55 56 58 60 59 60 62 63 63 61 60 58 59 58 56 55 52 52 49 49 46 44 41 41 41 39 39 38 36 36 34 35 30 27 23 25 24 27 23 29
59 58 58 57 57 58 60 60 62 63 64 66 65 64 63 62 62 57 55 54 52 49 47 44 45 46 44 43 41 38 39 35 37 38 37 34 29 31 25 24 28 27 27
58 59 59 58 58 58 59 60 62 65 67 67 66 65 65 64 62 61 57 56 52 49 49 49 44 48 44 42 41 41 42 46 38 42 38 36 37 34 30 23 26 31 28
52 52 55 59 57 60 61 61 62 65 67 69 69 69 69 69 68 66 63 59 56 55 54 51 48 49 46 43 44 46 45 47 43 42 43 39 39 36 32 28 26 30 30
46 45 47 50 53 56 59 60 63 65 69 72 75 76 76 75 75 73 71 68 66 59 59 54 51 51 49 49 47 48 47 47 46 42 44 42 39 37 36 33 31 30 28
46 48 50 51 54 57 61 64 66 70 75 78 81 81 82 84 85 82 81 77 72 68 62 61 59 53 52 52 50 50 45 47 48 44 50 43 40 41 39 34 32 32 32
48 49 51 54 56 55 53 50 51 51 51 52 55 60 64 71 80 85 88 86 80 76 70 69 64 61 55 57 54 52 51 52 49 45 48 44 43 41 40 37 35 34 33
40 40 39 33 27 34 34 33 34 33 35 35 39 42 46 50 57 72 92 93 90 80 77 72 69 67 62 59 57 54 55 49 45 44 47 47 46 45 41 39 36 36 36
31 30 29 30 29 32 34 36 30 29 32 28 29 33 39 46 50 60 69 75 86 88 80 75 73 70 66 59 58 57 57 48 46 45 49 45 46 46 42 39 38 39 37
30 27 25 22 22 25 22 25 29 35 36 33 24 25 26 32 38 43 45 48 56 66 70 72 71 72 62 60 61 57 51 44 45 44 49 51 48 42 41 39 41 40 38
21 17 16 18 15 19 14 15 21 25 29 27 20 19 16 14 24 35 39 40 42 45 48 51 56 55 60 61 58 51 47 45 48 46 49 42 43 36 37 40 42 38 38
10 7 14 10 11 13 13 8 8 12 10 17 19 19 18 17 20 28 35 36 39 43 44 46 46 52 59 56 55 52 47 48 47 46 52 40 41 34 36 40 40 36 38
4 5 7 9 5 5 10 11 12 9 12 18 20 17 19 21 25 27 29 31 33 35 37 40 44 46 48 52 49 41 41 42 43 49 46 41 41 39 37 39 39 39 40
4 10 12 5 5 7 12 9 9 15 7 3 25 13 20 19 24 29 29 33 35 36 38 40 41 43 43 42 40 41 44 46 44 49 44 42 40 42 41 42 41 41 41
5 10 10 5 5 6 6 8 7 10 15 13 9 14 13 17 23 26 30 32 35 37 41 42 43 43 43 41 43 45 43 46 47 46 44 44 46 45 44 46 43 41 43
8 8 5 3 1 2 5 8 7 4 8 10 6 8 9 19 22 27 29 32 35 38 40 41 40 44 42 44 45 43 46 51 49 47 44 46 49 49 50 46 43 44 43
3 4 3 3 3 3 3 6 7 11 11 13 3 1 1 4 15 28 37 34 37 35 41 44 43 44 47 49 51 51 53 52 52 45 47 54 51 58 48 45 44 43 43
3 4 4 3 3 3 3 4 6 9 12 13 9 4 5 2 3 11 43 34 52 39 48 41 46 47 50 49 50 46 48 47 49 62 40 53 42 38 42 42 43 44 43
4 4 4 4 4 5 5 6 5 7 10 11 12 13 10 7 8 4 16 11 17 37 43 31 36 45 44 44 45 40 43 42 31 40 41 36 38 35 39 46 46 47 44
3 3 4 5 5 6 6 7 7 7 7 8 9 9 13 15 13 6 11 7 10 12 12 17 25 34 27 24 29 41 37 32 28 30 34 38 43 47 48 48 51 50 48
5 5 5 4 5 5 5 5 6 7 7 6 6 5 6 8 12 17 18 15 13 16 16 20 20 22 23 24 26 33 37 44 46 47 49 45 45 52 47 47 49 52 54
4 4 5 5 5 5 6 5 5 5 6 7 7 7 7 7 8 7 9 13 16 18 19 21 23 26 29 30 31 33 40 39 34 38 49 52 54 54 56 58 57 59 59
2 4 3 3 4 4 4 5 5 5 6 7 8 10 10 10 10 10 12 13 14 16 19 20 21 24 28 32 33 35 37 41 45 50 51 53 51 53 58 64 63 59 58
4 5 5 5 5 5 5 6 7 9 11 12 14 16 17 18 19 20 20 21 22 22 23 25 28 29 31 33 36 38 38 39 42 43 42 44 46 52 58 66 68 66 64
7 9 9 9 8 7 8 8 11 12 14 17 19 21 22 24 25 25 25 25 26 27 29 30 31 32 34 36 38 42 44 47 49 49 50 50 50 50 51 52 53 55 58

GFSMW_500_spd_120.txt.gz
Wind_Speed
66 59 53 53 54 53 54 54 55 56 54 54 54 54 55 56 56 56 54 54 53 51 48 47 45 36 41 40 36 34 37 31 31 30 26 26 26 27 25 25 25 25 24
73 65 65 60 56 55 54 54 56 57 58 58 58 58 56 56 56 56 57 58 57 54 54 52 48 44 41 42 42 37 38 36 34 33 30 27 28 25 28 29 27 28 25
63 57 53 57 58 56 56 55 55 57 58 59 60 63 62 61 60 57 55 55 58 56 59 55 52 48 45 44 44 41 41 40 38 35 33 29 30 33 30 30 28 31 29
49 47 48 51 53 57 58 58 57 56 60 63 63 64 65 65 64 65 64 62 59 59 56 54 52 51 47 46 44 41 41 45 41 39 36 34 34 33 33 33 30 31 31
44 45 46 47 48 50 52 55 58 60 60 62 65 66 66 67 66 67 67 65 64 61 60 59 55 53 53 53 46 41 42 44 44 39 39 39 35 35 36 34 32 32 30
49 51 45 42 44 47 49 51 51 51 54 63 64 64 67 68 68 68 69 66 64 61 60 61 57 56 52 55 52 42 41 45 46 44 44 42 39 36 39 40 35 36 31
48 47 46 44 42 44 47 49 51 53 55 57 61 63 63 65 69 71 72 70 70 66 65 64 64 59 54 58 52 50 48 47 49 49 47 45 42 37 40 41 37 40 37
46 45 45 45 45 47 47 49 51 55 58 61 66 69 72 73 76 76 77 76 76 73 68 68 67 62 59 58 56 53 54 50 51 51 51 47 44 38 41 38 38 41 40
42 41 42 42 39 40 41 40 41 42 41 42 42 44 46 52 59 64 73 81 85 83 78 75 74 68 64 64 63 62 53 53 52 55 55 50 45 42 41 38 41 43 43
32 33 33 30 30 29 29 30 32 36 36 36 32 28 29 31 37 45 51 58 68 82 88 84 78 80 72 71 67 63 59 57 57 55 54 52 46 45 41 45 44 45 44
33 32 31 27 26 23 21 24 27 27 25 31 34 33 33 36 38 41 44 52 58 62 73 91 90 88 53 75 71 70 63 62 62 57 53 53 49 47 45 48 48 45 47
28 25 17 17 14 17 17 20 20 18 21 24 27 31 35 39 37 34 40 45 49 58 62 74 89 74 44 57 67 68 66 65 65 58 53 54 52 48 47 46 50 49 48
18 12 7 5 8 10 12 9 8 12 11 15 16 17 17 20 25 26 22 24 32 39 45 48 65 67 68 55 68 69 67 66 64 55 53 54 56 50 48 48 46 51 47
11 13 7 6 4 3 10 8 13 13 15 12 17 24 21 18 18 14 8 10 17 23 27 30 34 40 45 47 55 60 65 67 61 54 56 59 54 50 49 47 48 47 39
11 13 2 6 2 2 6 7 8 7 15 17 13 18 22 20 14 10 13 11 14 22 18 30 38 40 45 45 48 54 64 60 52 56 57 53 53 50 49 49 47 44 41
9 10 10 6 4 4 7 9 10 11 11 16 18 10 15 21 15 13 11 10 9 3 22 21 23 32 34 30 35 41 44 49 54 52 53 52 52 52 46 45 48 40 43
6 9 6 6 6 6 7 9 11 14 13 15 12 12 7 5 18 10 12 15 18 19 23 25 26 26 28 27 34 35 39 46 50 52 52 54 56 48 47 45 44 44 44
4 4 7 5 5 6 5 9 12 14 15 17 14 10 12 6 6 13 20 17 16 21 25 29 32 34 34 38 37 32 46 43 47 47 52 54 53 46 51 49 46 49 51
2 2 4 5 6 5 6 8 10 11 13 17 17 18 11 3 14 11 11 27 32 25 23 26 33 35 39 41 41 43 47 43 44 49 54 54 51 51 52 53 49 56 53
1 2 4 6 4 7 7 7 9 13 15 14 14 14 17 13 5 1 9 13 11 11 21 21 35 41 42 31 58 49 56 53 48 51 51 53 50 55 54 55 54 52 52
4 6 5 6 9 8 9 10 10 11 9 10 12 13 14 16 18 17 14 10 8 4 13 6 8 17 22 30 35 42 44 41 49 50 59 49 44 40 43 38 43 44 43
4 4 6 7 7 7 8 10 11 9 11 12 12 13 14 15 16 16 17 18 18 16 15 14 13 12 17 23 24 21 22 34 38 40 51 43 40 40 41 41 46 48 50
6 6 7 8 6 7 8 7 8 9 10 10 11 12 13 13 14 15 15 15 15 17 19 22 23 22 22 23 25 23 25 27 33 35 41 42 44 49 51 57 58 55 52
5 6 6 6 6 6 6 7 9 10 12 13 14 15 16 17 18 18 18 19 19 20 22 22 21 22 24 28 31 32 33 34 35 37 38 41 42 46 49 49 49 53 54
3 4 6 7 7 8 8 9 8 9 12 14 15 16 18 19 21 23 24 24 25 25 26 27 27 28 30 31 31 32 34 37 39 42 44 45 47 48 49 48 49 51 52
5 6 7 9 9 8 9 10 11 12 12 13 16 19 23 25 27 28 26 26 27 30 30 31 32 34 36 37 37 38 40 42 44 45 47 49 50 52 54 56 57 58 58

GFSMW_500_spd_123.txt.gz
Wind_Speed
74 75 71 55 51 57 60 60 57 54 55 56 54 54 56 55 55 55 54 53 52 48 47 50 51 45 40 37 39 38 37 42 39 38 27 28 28 21 21 25 26 25 24
72 72 70 68 56 53 56 57 61 60 56 57 59 57 56 56 57 57 55 55 55 55 59 54 54 43 43 44 45 43 41 42 45 40 35 29 30 25 24 27 27 26 26
63 60 57 57 54 53 53 56 57 57 58 59 58 57 57 57 59 59 59 58 59 58 57 57 59 56 48 47 49 50 49 42 47 46 39 34 27 28 32 31 30 28 27
53 57 54 47 49 49 48 51 56 57 57 57 58 58 57 55 58 60 60 61 60 61 61 58 56 59 49 53 48 52 54 50 48 50 42 35 31 30 33 30 31 31 28
46 45 50 52 53 54 52 52 51 54 58 58 58 57 58 58 58 61 62 63 64 64 63 62 56 58 59 57 60 60 55 55 50 49 45 37 35 31 34 29 30 34 28
45 45 46 49 52 54 53 52 51 50 52 54 56 56 57 59 60 63 64 66 66 67 67 66 66 61 59 58 60 59 68 64 55 53 49 37 37 31 36 32 31 32 28
50 50 51 56 55 51 48 46 48 47 49 50 52 53 55 57 59 63 66 67 68 67 66 67 67 68 62 60 58 56 61 64 61 50 45 38 39 40 35 35 33 29 32
52 54 52 48 50 50 50 49 46 47 49 49 51 54 56 56 56 57 62 66 67 67 67 67 68 67 67 64 62 60 62 66 58 59 47 40 40 43 37 40 36 35 35
37 40 43 44 42 40 41 42 42 44 46 49 51 53 57 61 65 67 67 68 69 70 71 71 70 68 68 68 67 63 63 65 63 56 60 39 45 47 40 37 40 40 41
43 42 40 35 34 35 30 29 29 29 30 32 34 34 37 36 35 39 45 55 69 78 80 77 77 77 72 72 72 69 68 68 63 58 54 46 49 50 44 40 40 43 42
34 33 33 35 26 21 21 20 23 29 30 25 24 24 25 26 25 27 31 36 39 48 57 72 86 83 77 75 75 73 74 63 68 57 51 51 51 50 44 43 40 45 46
35 28 26 19 13 13 11 13 10 8 11 17 19 20 23 23 22 29 36 43 50 46 47 53 60 77 88 81 79 78 79 54 60 58 52 50 55 55 47 45 47 47 48
20 14 16 12 12 8 8 10 11 8 8 9 13 16 15 10 12 19 24 30 32 40 47 51 52 55 63 81 85 82 80 72 67 58 57 56 57 57 55 48 51 49 47
12 12 9 8 12 10 12 10 15 13 13 14 6 10 15 20 20 14 14 18 17 16 20 28 38 44 45 52 75 82 83 79 74 74 64 66 63 65 59 49 50 48 48
6 9 11 9 11 9 11 14 15 15 12 17 17 13 10 13 17 14 16 11 10 10 10 15 24 31 34 40 47 75 79 79 51 50 63 71 65 64 57 54 51 50 51
3 6 10 6 10 11 11 9 11 14 14 13 17 15 6 9 14 16 12 8 5 8 17 8 10 19 28 36 30 51 67 57 82 51 58 61 64 58 58 56 54 52 53
2 5 6 6 7 8 10 11 10 12 14 16 10 16 9 6 6 14 15 10 15 6 7 3 9 10 10 20 34 41 61 50 65 61 58 58 60 55 56 54 56 58 56
5 2 4 6 7 6 7 8 9 11 15 18 19 17 11 12 8 4 13 13 11 11 4 10 8 8 14 12 23 28 34 41 43 46 49 49 48 57 58 61 59 58 57
4 2 4 6 5 6 8 8 12 16 18 17 17 18 17 12 14 13 7 7 16 16 16 16 23 19 22 19 23 27 32 32 28 37 40 47 46 51 59 69 55 53 65
1 3 5 5 5 9 10 12 16 19 15 15 16 19 21 23 23 13 12 13 8 7 15 22 22 18 24 28 32 30 36 41 37 41 41 47 52 56 52 53 52 52 50
5 7 8 7 10 10 11 14 15 15 12 14 17 19 19 19 20 23 24 21 20 14 9 0 7 9 17 31 32 41 35 36 45 44 45 46 61 55 56 53 58 54 56
8 9 9 8 8 8 9 10 11 10 11 14 15 16 16 17 18 18 19 18 18 18 21 23 22 15 10 11 14 17 22 27 31 42 47 46 48 51 45 49 52 58 53
10 9 8 7 6 6 6 7 7 7 9 11 12 14 16 17 19 20 21 21 22 21 21 21 19 19 19 22 25 27 26 26 24 24 26 28 35 37 39 45 48 47 49
10 8 6 5 3 5 5 6 7 10 12 14 15 18 20 20 21 21 22 24 24 25 25 25 25 25 24 25 26 27 27 28 30 33 36 38 39 40 39 40 40 41 47
7 4 1 2 4 6 6 6 8 9 10 11 13 15 16 16 18 20 20 21 22 22 23 26 27 27 28 27 27 28 29 32 34 36 38 39 40 41 44 46 49 51 53
5 4 3 4 6 8 9 10 12 13 13 13 13 15 17 19 21 22 23 22 24 28 27 27 28 29 31 31 32 35 37 38 40 43 44 45 47 49 51 52 54 55 56

GFSMW_500_spd_126.txt.gz
Wind_Speed
63 63 63 64 65 64 52 48 49 52 56 63 65 64 55 61 62 62 61 61 54 53 51 52 56 67 61 49 36 43 42 40 38 38 35 34 33 33 28 28 29 31 30
65 65 63 62 60 55 54 54 52 53 56 57 68 69 65 59 64 65 66 65 63 56 55 55 56 50 56 46 50 51 45 42 39 41 39 39 36 33 31 28 30 32 34
59 55 52 51 49 50 52 53 56 56 56 60 64 69 68 66 63 67 68 67 65 63 59 57 58 68 60 53 53 47 50 44 44 45 46 44 40 34 34 34 31 31 30
49 48 47 47 48 49 52 53 55 57 55 55 62 68 67 68 68 63 68 67 66 65 63 62 60 62 60 55 55 48 47 48 51 49 48 42 44 40 36 37 33 31 30
45 45 45 46 47 49 51 54 56 58 61 62 60 59 62 65 67 66 63 66 67 67 65 65 64 63 61 58 56 50 58 57 58 57 52 47 47 46 40 38 34 32 30
45 48 50 50 49 51 52 55 58 60 61 61 59 59 56 58 63 64 66 66 66 65 66 67 67 67 65 64 62 59 54 55 61 57 57 58 54 50 48 42 37 34 33
49 51 54 54 56 57 57 59 59 57 54 54 55 54 55 53 55 60 65 68 67 69 68 69 69 70 70 68 65 64 61 58 58 64 57 67 55 52 55 47 38 35 31
52 55 57 55 53 49 48 51 53 53 54 52 50 50 51 51 50 52 57 64 68 70 71 73 72 72 72 71 69 68 68 63 64 50 65 46 60 69 54 44 42 36 30
42 43 44 45 45 43 40 41 43 44 44 44 47 49 49 50 50 49 49 51 56 62 70 71 70 71 72 71 72 70 72 68 68 70 70 60 45 76 52 58 46 43 34
44 49 47 38 34 33 35 30 31 31 29 26 26 31 39 45 48 49 51 52 55 56 59 61 66 68 70 71 72 72 70 70 73 70 70 64 58 55 51 54 44 40 38
37 36 33 25 29 30 23 21 19 19 26 26 25 24 25 28 30 30 31 35 42 49 57 65 68 67 68 71 72 71 71 72 74 70 69 65 60 56 54 57 59 43 42
31 22 24 21 23 19 19 10 18 16 13 13 19 16 12 14 17 19 20 24 27 32 36 40 48 61 74 78 73 73 74 73 71 72 71 69 61 52 56 48 52 46 43
22 22 17 16 7 9 10 14 14 18 15 16 13 8 7 8 11 12 11 22 28 33 37 43 49 53 59 62 79 81 78 76 75 77 76 74 68 67 49 58 52 47 44
22 13 10 7 7 7 12 9 12 16 15 14 11 5 1 9 12 18 10 10 16 16 22 26 32 42 50 52 59 64 74 78 79 77 77 78 69 65 63 49 47 44 42
14 11 6 8 6 4 8 7 11 15 15 15 16 13 6 8 17 12 15 12 9 13 18 17 20 21 30 47 50 51 58 68 78 79 76 72 72 63 67 58 57 52 47
8 7 4 8 5 6 8 6 10 12 16 19 20 15 9 2 4 7 10 5 12 13 19 12 18 23 18 26 41 47 50 53 67 78 75 72 69 67 64 67 62 62 59
3 4 5 4 4 6 7 7 6 8 17 20 20 16 17 12 6 8 8 16 14 13 15 13 12 12 17 21 26 34 37 39 38 61 75 72 69 70 71 72 63 73 77
2 4 4 5 2 2 3 6 11 18 20 21 21 19 14 17 17 14 8 8 12 17 17 11 14 15 9 13 14 21 25 26 27 31 51 68 66 63 69 69 51 60 66
4 5 4 2 5 7 9 14 18 20 22 22 24 26 26 27 26 19 18 16 15 7 10 21 16 9 10 17 5 12 15 27 27 35 46 53 52 61 48 53 48 53 52
6 6 6 9 11 12 13 14 17 17 17 17 19 21 23 24 24 25 27 29 29 24 19 14 8 6 4 8 14 15 13 14 14 16 27 32 44 47 54 56 50 66 48
6 8 11 12 11 12 12 12 13 14 10 11 12 15 17 17 17 18 19 19 21 23 24 26 27 27 26 21 11 3 10 15 23 25 28 32 33 35 43 39 47 55 56
11 12 13 11 9 9 8 7 7 7 6 8 9 11 12 13 16 17 18 19 18 18 20 21 21 21 21 22 22 22 22 19 15 19 25 28 35 44 45 46 46 52 52
13 14 13 10 8 6 5 3 2 2 4 6 8 9 12 15 17 18 20 21 22 22 22 22 23 23 23 21 20 19 19 19 20 24 25 25 25 27 30 34 38 43 49
14 14 13 11 8 6 4 3 3 5 8 11 13 14 16 17 17 18 18 19 21 22 24 25 25 24 24 24 25 25 25 25 24 24 24 24 26 29 32 34 37 39 39
17 15 13 11 9 8 7 6 7 9 11 13 14 15 16 18 19 20 21 21 21 22 23 24 24 24 25 24 24 24 25 26 28 29 30 31 32 34 36 38 39 41 43
17 16 14 13 11 10 10 10 11 12 14 15 17 19 21 21 22 22 23 25 26 27 28 29 30 31 31 30 29 29 31 32 34 36 37 39 41 43 45 47 49 51 52

GFSMW_500_spd_132.txt.gz
Wind_Speed
60 61 60 60 62 64 66 67 69 71 71 71 70 71 71 71 69 69 69 72 72 72 73 74 73 67 65 62 65 61 55 59 62 63 60 55 54 46 39 38 34 34 31
60 62 63 65 66 68 69 71 72 74 75 75 76 77 73 71 73 73 72 69 69 75 80 80 79 77 73 67 65 60 64 51 44 61 67 61 56 50 42 39 36 37 36
60 61 63 65 67 69 71 74 75 76 76 75 73 72 71 67 63 65 67 70 72 74 78 83 86 82 78 72 69 65 60 51 44 44 67 58 51 55 46 45 42 40 39
59 61 63 66 67 68 69 68 66 65 64 64 64 65 64 62 60 61 63 66 69 72 77 79 85 85 82 75 71 69 65 61 55 48 56 64 59 51 48 46 46 46 44
60 61 64 64 63 63 62 58 57 57 57 59 61 63 64 65 62 63 64 68 68 74 76 72 79 88 83 81 73 70 67 62 52 49 45 53 66 54 58 40 42 47 50
60 60 57 57 57 59 58 56 58 60 61 63 63 64 65 66 67 69 72 69 69 68 72 71 71 75 86 82 78 72 69 62 57 50 52 48 58 61 48 48 41 41 45
55 53 54 54 53 52 53 56 58 55 54 52 49 50 51 51 54 56 59 59 58 60 63 65 66 67 72 78 77 74 69 64 61 58 55 57 48 48 58 56 50 46 48
52 52 50 49 50 49 47 45 43 44 46 45 44 45 47 49 52 57 59 57 54 57 58 55 59 60 63 64 68 74 70 64 61 60 59 58 53 49 44 59 48 43 54
48 48 46 42 41 42 42 40 39 39 39 40 36 34 34 41 38 40 36 46 55 49 47 45 45 50 53 55 58 60 67 62 61 60 62 64 61 53 41 50 49 48 56
45 43 41 39 36 36 34 31 29 28 27 26 29 35 37 38 34 31 28 27 29 35 37 36 33 39 44 48 49 51 60 62 60 62 62 62 56 60 57 56 57 54 58
42 40 37 34 30 25 22 19 16 18 21 27 30 33 40 31 21 19 20 22 22 23 28 30 29 30 34 36 37 38 47 55 58 59 61 63 60 61 60 60 58 59 62
39 33 31 30 22 19 17 11 14 16 23 31 35 32 27 15 12 14 13 11 11 14 16 18 24 28 32 33 32 34 37 45 53 58 58 59 61 62 62 62 64 63 61
29 26 26 22 19 15 13 12 11 17 23 25 28 23 4 12 10 11 9 11 7 3 6 8 9 11 17 22 27 32 37 41 45 50 53 58 60 62 64 64 64 64 60
24 25 25 17 12 13 13 9 9 14 18 21 17 14 4 4 5 6 7 10 10 7 3 6 8 10 14 17 21 25 31 38 46 52 57 58 59 62 64 67 67 65 63
24 23 16 11 11 8 7 8 10 10 10 8 12 16 17 12 11 10 8 5 7 8 6 4 5 10 12 17 23 25 29 32 37 43 54 57 62 66 66 65 66 68 67
22 17 13 10 10 5 10 6 2 4 5 5 19 23 23 22 21 19 18 17 12 7 5 4 8 4 15 8 10 16 22 28 26 33 42 51 54 52 54 62 69 66 66
17 13 12 11 10 10 10 6 10 15 16 18 21 26 28 30 31 29 27 26 18 13 10 9 9 10 11 8 11 14 13 19 25 22 28 37 44 47 49 51 54 63 67
15 14 14 13 11 12 10 11 11 10 12 15 18 19 21 23 24 26 26 26 25 25 27 21 14 9 8 8 11 12 13 14 20 25 20 25 33 36 38 41 45 49 58
16 14 14 12 9 13 15 13 8 7 9 12 14 16 17 19 21 22 22 22 24 24 22 22 24 24 25 24 19 12 5 4 7 14 18 20 26 33 39 41 42 45 49
16 16 16 13 16 14 14 10 7 6 6 9 10 11 14 16 17 18 18 19 20 21 23 24 25 26 26 26 24 25 27 27 20 7 7 6 14 18 29 35 41 47 47
14 15 15 13 16 16 13 11 8 5 3 5 4 7 8 9 11 12 14 16 18 19 21 22 22 22 23 24 24 24 23 22 21 23 28 22 9 7 14 24 35 34 38
13 13 13 18 19 16 14 12 10 7 4 1 4 8 10 10 11 12 14 16 17 20 21 21 22 23 22 22 22 22 21 20 20 21 21 19 20 20 22 23 17 11 28
11 12 17 22 18 17 16 14 11 9 8 7 7 10 11 11 13 14 17 20 22 23 24 25 26 27 26 27 25 23 21 23 23 20 20 20 20 20 19 19 19 20 21
13 17 22 20 20 19 17 16 14 13 13 12 12 12 14 14 13 16 19 21 22 24 26 27 28 29 31 32 32 32 32 30 29 28 28 27 26 26 26 26 25 25 25
18 20 23 23 22 21 19 18 17 16 16 16 16 17 18 17 18 20 23 24 25 27 28 29 29 30 32 33 33 34 36 37 36 37 37 37 37 37 35 34 32 32 32
21 22 24 23 23 23 21 21 21 21 20 20 21 22 22 22 24 25 25 26 28 28 28 30 31 32 34 33 32 32 33 34 35 36 38 40 42 43 45 45 44 43 42